Погода в Гусь-Железном

Россия / Рязанская область     55°03′25″N   41°09′49″E
темп.,
°C
ветер,
м/с
пор.,
м/с
влажн.,
%
обл.,
%
осадки,
мм/ч
давл.,
гПа
погр.,
м
5 марта, пт
пт500:00−4с1298100 0.6 100077
03:00−5ссз2497100 1.2 1002138
06:00−7сз269698 0.1 1004175
09:00−7сз359359 0.1 1006243
12:00−3з358686 0.0 1007674
15:00−2з477793 0.4 1008964
18:00−5з398755 0.5 1009250
21:00−8зсз369069 0.6 1013125
6 марта, сб
сб600:00−11зсз23910 0.0 101424
03:00−13зсз22920 0.0 101620
06:00−14зюз12930 0.0 101620
09:00−10зюз12900 0.0 1016133
12:00−5зсз24800 0.0 1016555
15:00−4з247545 0.2 1015921
18:00−7з2287100 0.2 101521
21:00−10зюз259497 0.2 1015109
7 марта, вс
вс700:00−12з239672 0.0 101431
03:00−13юз369536 0.0 101294
06:00−13ююз4109126 0.0 1010255
09:00−9ююз6148463 0.0 1006560
12:00−5ююз81481100 0.0 1002865
15:00−4ююз91692100 1.3 9971274
18:00−3ююз81593100 2.2 9921240
21:00−5зсз81589100 3.6 9931376
8 марта, пн
пн800:00−7з6158463 0.1 995884
03:00−9юз5138538 0.1 996526
06:00−9юз4119598 0.2 994545
09:00−7юз379499 0.8 994472
12:00−4зсз5880100 0.5 9961005
15:00−5з6107656 0.6 9991210
18:00−7з41092100 0.1 1000732
21:00−8зсз41093100 0.3 1003622
9 марта, вт
вт900:00−10зсз41094100 0.1 1005456
03:00−13зсз399599 0.1 1008312
06:00−15зсз389686 0.0 1011259
09:00−13сз479187 0.1 1013428
12:00−11сз4686100 0.1 1014621
15:00−10сз4685100 0.1 1015767
18:00−13сз3792100 0.1 1016522
21:00−16сз2298100 0.1 101823